TimeEDT,TemperatureF,Dew PointF,Humidity,Sea Level PressureIn,VisibilityMPH,Wind Direction,Wind SpeedMPH,Gust SpeedMPH,PrecipitationIn,Events,Conditions,WindDirDegrees,DateUTC
12:53 AM,57.9,55.9,93,30.04,6.0,SW,8.1,-,N/A,,Clear,220,2013-06-01 04:53:00
1:53 AM,57.9,55.9,93,30.03,6.0,SW,12.7,-,N/A,,Clear,230,2013-06-01 05:53:00
2:53 AM,57.9,55.9,93,30.02,6.0,SW,12.7,-,N/A,,Clear,230,2013-06-01 06:53:00
3:53 AM,57.0,55.9,96,30.02,6.0,SW,11.5,-,N/A,,Clear,230,2013-06-01 07:53:00
4:53 AM,57.0,55.0,93,30.02,6.0,SW,11.5,-,N/A,,Clear,230,2013-06-01 08:53:00
5:53 AM,57.9,55.9,93,30.03,5.0,SW,11.5,-,N/A,,Clear,230,2013-06-01 09:53:00
6:53 AM,60.1,57.0,90,30.04,6.0,WSW,13.8,-,N/A,,Clear,240,2013-06-01 10:53:00
7:53 AM,61.0,57.0,87,30.04,8.0,SW,11.5,-,N/A,,Clear,220,2013-06-01 11:53:00
8:53 AM,63.0,57.9,84,30.04,8.0,SW,13.8,-,N/A,,Clear,230,2013-06-01 12:53:00
9:53 AM,63.0,57.9,84,30.04,8.0,SW,15.0,-,N/A,,Clear,230,2013-06-01 13:53:00
10:53 AM,64.0,57.9,80,30.04,8.0,SW,16.1,-,N/A,,Clear,230,2013-06-01 14:53:00
11:53 AM,64.0,59.0,84,30.04,8.0,SW,13.8,-,N/A,,Clear,230,2013-06-01 15:53:00
12:53 PM,64.0,57.9,80,30.04,8.0,SW,12.7,-,N/A,,Clear,220,2013-06-01 16:53:00
1:53 PM,64.9,57.9,78,30.02,8.0,SW,17.3,-,N/A,,Clear,230,2013-06-01 17:53:00
2:53 PM,64.9,59.0,81,30.01,9.0,SW,13.8,-,N/A,,Clear,230,2013-06-01 18:53:00
3:53 PM,63.0,57.9,84,30.00,8.0,SSW,12.7,-,N/A,,Clear,210,2013-06-01 19:53:00
4:45 PM,62.6,57.2,82,29.98,8.0,SW,13.8,-,N/A,,Partly Cloudy,220,2013-06-01 20:45:00
4:53 PM,63.0,57.9,84,29.99,7.0,SW,15.0,-,N/A,,Scattered Clouds,230,2013-06-01 20:53:00
5:53 PM,62.1,57.9,86,29.99,6.0,SW,13.8,-,N/A,,Scattered Clouds,220,2013-06-01 21:53:00
6:53 PM,61.0,57.9,90,29.99,6.0,SW,10.4,-,N/A,,Scattered Clouds,220,2013-06-01 22:53:00
7:34 PM,60.8,57.2,88,29.98,4.0,SW,10.4,-,N/A,,Mostly Cloudy,220,2013-06-01 23:34:00
7:53 PM,59.0,57.9,96,29.99,4.0,SSW,11.5,-,N/A,,Overcast,210,2013-06-01 23:53:00
8:53 PM,60.1,57.9,93,29.99,4.0,SW,12.7,-,N/A,,Overcast,220,2013-06-02 00:53:00
9:09 PM,60.8,57.2,88,30.00,1.8,SW,12.7,-,N/A,,Overcast,220,2013-06-02 01:09:00
9:20 PM,59.0,57.2,94,29.99,0.5,SW,13.8,-,N/A,Fog,Fog,220,2013-06-02 01:20:00
9:43 PM,59.0,57.2,94,30.00,2.0,SW,11.5,-,N/A,,Overcast,220,2013-06-02 01:43:00
9:51 PM,60.8,59.0,94,30.00,4.0,SW,12.7,-,N/A,,Overcast,220,2013-06-02 01:51:00
9:53 PM,60.1,59.0,96,30.00,4.0,SW,13.8,-,N/A,,Overcast,220,2013-06-02 01:53:00
10:06 PM,59.0,57.2,94,30.00,1.8,SW,12.7,-,N/A,,Overcast,220,2013-06-02 02:06:00
10:15 PM,59.0,57.2,94,30.00,0.5,SW,11.5,-,N/A,Fog,Fog,220,2013-06-02 02:15:00
10:18 PM,59.0,57.2,94,30.00,0.5,SSW,13.8,-,N/A,Fog,Fog,210,2013-06-02 02:18:00
10:27 PM,59.0,57.2,94,29.99,0.5,SSW,13.8,-,N/A,Fog,Fog,210,2013-06-02 02:27:00
10:45 PM,59.0,57.2,94,29.99,1.0,SSW,11.5,-,N/A,,Mist,210,2013-06-02 02:45:00
10:50 PM,59.0,57.2,94,29.99,3.0,SW,11.5,-,N/A,,Overcast,220,2013-06-02 02:50:00
10:53 PM,59.0,57.9,96,29.99,4.0,SW,11.5,-,N/A,,Overcast,220,2013-06-02 02:53:00
11:36 PM,59.0,57.2,94,29.99,5.0,SW,11.5,-,N/A,,Scattered Clouds,220,2013-06-02 03:36:00
11:53 PM,59.0,57.9,96,30.00,5.0,SW,11.5,-,N/A,,Clear,220,2013-06-02 03:53:00